Location: Roanoke
(37.2710°N, 79.9420°W)
Time: 02:42:12
(UTC-05:00)

Daily predictions for brighter satellites

Satellite Brightness Start Highest point End
(mag) Time Altitude Azimuth Time Altitude Azimuth Time Altitude Azimuth
ATLAS CENTAUR R/B 3.9 03:42:29 66° ESE 03:42:29 66° ESE 03:56:03 10° SE
USA 234 4.0 03:54:13 10° ENE 04:00:24 43° SE 04:01:04 42° SE
Cosmos 1656 Rocket 4.3 04:10:08 53° ENE 04:10:08 53° ENE 04:14:45 10° NNE
ATLAS 3B R/B 4.2 04:07:19 15° SSE 04:12:41 36° ESE 04:19:15 10° NE
Cosmos 2369 Rocket 4.4 04:26:32 14° NNW 04:26:32 14° NNW 04:27:30 10° N
Cosmos 2219 4.2 04:22:33 10° N 04:27:57 43° ENE 04:33:17 10° SE
Meteor 2-10 Rocket 3.8 04:31:13 56° NNE 04:31:13 56° NNE 04:35:16 10° NNE
Meteor 1-26 Rocket 4.2 04:30:17 82° ESE 04:30:21 82° E 04:35:58 10° N
Cosmos 1452 Rocket 4.1 04:33:11 47° N 04:33:11 47° N 04:36:59 10° NNE
Okean-O 3.8 04:28:44 10° NNE 04:32:56 40° E 04:34:38 28° SSE
Cosmos 1244 Rocket 4.4 04:30:30 10° N 04:36:45 81° E 04:42:53 10° S
Tiangong 1 4.2 04:40:32 13° NE 04:40:32 13° NE 04:40:56 10° NE
Delta 2 Rocket 4.1 04:39:32 54° SE 04:39:32 54° SE 04:43:43 10° E
Okean 2 Rocket 4.1 04:36:03 10° N 04:40:17 45° E 04:44:30 10° SSE
Meteor 1-31 Rocket 3.7 04:38:19 10° NNE 04:41:56 46° E 04:41:56 46° E
ATLAS 5 CENTAUR R/B 4.0 04:51:29 15° NNW 04:51:29 15° NNW 04:53:09 10° N
Cosmos 614 Rocket 4.3 04:48:19 10° NNW 04:53:25 64° ENE 04:58:31 10° SSE
Cosmos 1140 Rocket 3.4 04:48:19 10° NNW 04:53:35 87° ENE 04:58:50 10° SSE
Cosmos 1943 Rocket 3.7 04:56:41 20° NNW 04:56:41 20° NNW 04:59:13 10° N
RUBIN 8/PSLV 4.5 04:51:17 10° NNE 04:55:40 84° ESE 04:56:24 60° S
CZ-4C R/B 2.5 05:00:42 42° NW 05:00:46 43° NW 05:06:23 10° NNE
S3M 4.0 04:54:55 10° S 05:01:16 88° E 05:07:33 10° N
ADEOS II 2.7 04:58:11 10° N 05:02:06 37° NW 05:02:06 37° NW
Lacrosse 5 3.7 05:04:44 17° NNW 05:04:44 17° NNW 05:07:54 10° NNE
Cosmos 1553 Rocket 3.9 05:00:28 10° S 05:06:39 81° W 05:13:00 10° N
COSMO-SKYMED 1 4.2 05:03:14 10° SE 05:07:11 36° ENE 05:11:10 10° N
Okean 1-7 3.4 05:14:32 43° NW 05:14:32 43° NW 05:17:59 10° N
USA 81 4.2 05:12:22 10° S 05:17:36 76° E 05:22:53 10° N
CZ-4B R/B 4.1 05:14:09 10° N 05:18:49 29° WNW 05:18:49 29° WNW
Feng Yun 1-1 Rocket 4.3 05:14:33 10° N 05:20:26 69° WNW 05:26:18 10° SSW
Cosmos 2221 Rocket 4.5 05:24:46 30° WNW 05:24:46 30° WNW 05:28:08 10° NNW
Gblst 52 Del rocket 4.3 05:20:38 24° SW 05:24:13 82° SE 05:30:28 10° NE
COSMOS 2455 4.3 05:21:33 10° S 05:27:03 38° ESE 05:32:34 10° NE
Meteor 1-20 Rocket 4.1 05:28:17 10° NNW 05:33:54 64° W 05:39:21 10° S
Cosmos 1850 Rocket 4.0 05:30:13 10° NNW 05:35:28 62° WSW 05:40:40 10° S
Meteor 1-27 Rocket 4.1 05:34:24 10° S 05:40:09 71° E 05:46:02 10° NNE
Cosmos 1709 Rocket 4.5 05:34:36 10° N 05:40:41 62° E 05:46:45 10° SSE
Cosmos 1606 2.7 05:37:32 10° SSW 05:41:21 57° W 05:45:12 10° N
Ariane Rocket 3.8 05:37:51 10° NNE 05:42:50 53° E 05:47:46 10° S
USA 234 3.5 05:37:08 10° NE 05:43:25 51° NW 05:48:27 16° WSW
Lacrosse 5 rocket 2.2 05:40:28 10° NNW 05:43:54 40° NE 05:47:18 10° ESE
SL-12 R/B (Aux Motor) 3.9 05:42:47 23° NW 05:44:28 73° NNE 05:46:29 10° ESE
USA 238 DEB 3.8 05:38:16 10° SSW 05:45:17 89° ESE 05:52:20 10° NNE
USA 238 3.8 05:38:21 10° SSW 05:45:23 88° ESE 05:52:26 10° NNE
Cosmos 2369 3.8 05:40:49 10° SSW 05:46:26 79° ESE 05:52:05 10° NNE
Cosmos 1300 Rocket 4.2 05:43:16 10° N 05:47:39 58° E 05:51:57 10° SSE
Cosmos 1602 4.2 05:45:17 10° N 05:49:14 65° E 05:53:08 10° SSE
GEOS 3 Rocket 4.1 05:47:01 10° S 05:51:43 38° WSW 05:56:28 10° NW
Cosmos 2297 Rocket 3.1 05:47:07 10° NNW 05:52:38 52° ENE 05:58:06 10° SE
SKYMED 2 3.5 05:50:52 10° S 05:55:09 61° W 05:59:27 10° NNW
Cosmos 1386 Rocket 4.5 05:51:10 10° NNW 05:57:05 56° W 06:03:06 10° SSW
Cosmos 1782 3.8 05:55:33 10° SW 05:58:53 26° WNW 06:02:15 10° NNW
Cosmos 1745 Rocket 4.3 05:53:39 10° NNW 05:59:18 40° W 06:04:55 10° SSW
NOAA 6 4.4 05:54:35 10° N 05:59:25 42° WNW 06:04:14 10° SW
Cosmos 2315 Rocket 4.0 05:53:08 10° S 05:59:30 87° W 06:05:53 10° N
Cosmos 1331 Rocket 3.9 05:56:21 10° SSW 06:01:30 72° WNW 06:06:44 10° NNE
Cosmos 2278 3.6 05:56:27 10° SSW 06:02:04 73° WNW 06:07:44 10° NNE
ATLAS 3B R/B 3.2 05:55:58 10° SW 06:03:15 49° NW 06:10:18 10° NNE
Cosmos 1378 Rocket 3.9 05:59:42 10° S 06:04:02 69° E 06:08:22 10° NNE
Cosmos 1674 Rocket 3.6 05:59:55 10° SSW 06:04:14 58° W 06:08:38 10° N
Cosmos 1633 2.4 06:01:40 10° NNW 06:05:15 65° W 06:08:49 10° S
Meteor 2-6 Rocket 4.5 06:02:03 10° SSW 06:07:06 42° WNW 06:12:14 10° N
DMSP B5D1-3 4.5 06:03:31 10° S 06:08:33 65° WSW 06:13:38 10° NNW
Okean-O 4.1 06:06:14 10° NNW 06:09:04 17° WNW 06:11:54 10° WSW
SL-24 R/B - RUBIN 2 4.4 06:04:20 10° NNW 06:10:23 76° ENE 06:15:39 10° SE
Cosmos 2219 4.2 06:07:24 10° NW 06:11:45 23° W 06:16:04 10° SSW
IDEFIX/ARIANE 42P 3.5 06:06:41 10° NNE 06:11:49 55° E 06:16:52 10° S
Cosmos 2227 Rocket 2.2 06:07:36 10° NNW 06:13:18 80° WSW 06:18:57 10° SSE
Cosmos 1656 3.8 06:07:39 10° SSW 06:13:21 87° ESE 06:19:04 10° NNE
Tiangong 1 2.3 06:12:05 10° NW 06:14:44 31° N 06:17:25 10° ENE
NOSS 3-2 (C) 4.5 06:09:50 10° S 06:15:34 51° ESE 06:21:45 10° NE
CZ-2C R/B 3.2 06:11:31 10° NNE 06:16:26 59° E 06:21:28 10° S
Cosmos 1110 Rocket 4.3 06:12:38 10° SW 06:17:32 44° WNW 06:22:29 10° N
Cosmos 1346 Rocket 3.4 06:14:27 10° S 06:18:28 65° E 06:22:28 10° NNE
Delta 2 Rocket 3.9 06:16:40 10° W 06:21:23 71° S 06:26:45 10° ESE
Okean 1 Rocket 3.1 06:24:58 10° NNW 06:29:19 61° W 06:33:36 10° S
